Location: Oshawa
(43.9000°N, 78.8670°W)
Time: 22:31:16
(UTC-05:00)

Explorer 7 - Visible Passes

Search period start: 01 March 2015 00:00
Search period end: 11 March 2015 01:00
Orbit: 489 x 697 km, 50.3° (Epoch: 01 March)

Date Brightness Start Highest point End Pass type
(mag) Time Alt. Az. Time Alt. Az. Time Alt. Az.
01 Mar 8.3 04:22:16 31° ENE 04:22:16 31° ENE 04:24:22 10° ENE visible
01 Mar 7.7 05:58:49 14° WNW 06:01:39 32° N 06:05:07 10° ENE visible
02 Mar 8.0 04:30:26 36° NE 04:30:26 36° NE 04:32:54 10° ENE visible
02 Mar 7.9 06:07:00 10° WNW 06:10:24 30° N 06:13:49 10° ENE visible
03 Mar 7.8 04:38:33 36° NNE 04:38:33 36° NNE 04:41:26 10° NE visible
03 Mar 7.9 06:15:44 10° WNW 06:19:09 31° N 06:22:35 10° ENE visible
04 Mar 7.7 04:46:39 33° N 04:46:39 33° N 04:50:00 10° ENE visible
05 Mar 7.8 04:54:43 29° NNW 04:55:14 30° N 04:58:38 10° ENE visible
06 Mar 10.0 03:26:15 10° NE 03:26:15 10° NE 03:26:19 10° NE visible
06 Mar 8.0 05:02:47 25° NNW 05:03:58 30° N 05:07:22 10° ENE visible
07 Mar 9.8 03:34:19 13° NE 03:34:19 13° NE 03:34:51 10° NE visible
07 Mar 7.9 05:10:51 21° NW 05:12:40 33° N 05:16:09 10° ENE visible
08 Mar 9.5 04:42:24 16° NE 04:42:24 16° NE 04:43:26 10° ENE visible
08 Mar 7.6 06:18:56 18° NW 06:21:20 40° NNE 06:24:57 10° E visible
09 Mar 9.1 04:50:31 20° NE 04:50:31 20° NE 04:52:07 10° ENE visible
09 Mar 7.2 06:27:03 16° NW 06:29:57 53° NNE 06:33:41 10° E visible
10 Mar 8.7 04:58:40 26° NE 04:58:40 26° NE 05:00:51 10° ENE visible
10 Mar 6.6 06:35:13 13° WNW 06:38:30 79° NNE 06:42:18 10° ESE visible
